Photometre #141[NE_1.6_Dp] Toulouse_MF AOT

File : 20200926_141.hum

26/09/2020,06:36:41,TEMP=10.5,BA=5.24,STAT.A=0.0,ExtBa=12.89
26/09/2020,06:40:15,TEMP=10.8,BA=5.20,STAT.A=0.0,ExtBa=12.80
26/09/2020,06:44:26,TEMP=10.8,BA=5.20,STAT.A=0.0,ExtBa=12.78
26/09/2020,06:49:24,TEMP=10.9,BA=5.20,STAT.A=0.0,ExtBa=12.78
26/09/2020,06:55:24,TEMP=11.0,BA=5.16,STAT.A=0.0,ExtBa=12.78
26/09/2020,07:02:49,TEMP=10.9,BA=5.24,STAT.A=0.0,ExtBa=12.79
26/09/2020,07:12:11,TEMP=11.0,BA=5.24,STAT.B=0.0,ExtBa=12.79
26/09/2020,07:16:40,TEMP=11.1,BA=5.24,STAT.A=0.0,ExtBa=12.76
26/09/2020,07:21:42,TEMP=11.2,BA=5.24,STAT.A=0.0,ExtBa=12.76
26/09/2020,07:27:23,TEMP=11.3,BA=5.24,STAT.A=0.0,ExtBa=12.76
26/09/2020,07:33:52,TEMP=11.5,BA=5.24,STAT.A=0.0,ExtBa=12.76
26/09/2020,07:41:19,TEMP=11.9,BA=5.36,STAT.C=0.0,ExtBa=12.76
26/09/2020,07:53:30,TEMP=12.6,BA=5.16,STAT.A=0.0,ExtBa=12.67
26/09/2020,08:00:18,TEMP=12.2,BA=5.20,STAT.A=0.0,ExtBa=12.75
26/09/2020,08:12:41,TEMP=12.0,BA=5.20,STAT.A=0.0,ExtBa=12.77
26/09/2020,08:28:01,TEMP=12.1,BA=5.20,STAT.A=0.0,ExtBa=12.78
26/09/2020,08:46:14,TEMP=12.1,BA=5.24,STAT.F,ExtBa=12.78
26/09/2020,09:01:12,TEMP=12.6,BA=5.28,STAT.D=0.0,ExtBa=12.78
26/09/2020,09:16:12,TEMP=13.1,BA=5.36,STAT.D=0.0,ExtBa=12.78
26/09/2020,09:31:13,TEMP=13.5,BA=5.32,STAT.D=0.0,ExtBa=12.82
26/09/2020,09:46:14,TEMP=13.6,BA=5.32,STAT.F,ExtBa=12.78
26/09/2020,10:01:13,TEMP=14.1,BA=5.44,STAT.D=0.0,ExtBa=12.78
26/09/2020,10:16:13,TEMP=14.6,BA=5.44,STAT.D=0.0,ExtBa=12.79
26/09/2020,10:31:13,TEMP=14.7,BA=5.52,STAT.D=0.0,ExtBa=12.91
26/09/2020,10:46:14,TEMP=15.0,BA=5.48,STAT.F,ExtBa=12.81
26/09/2020,11:01:13,TEMP=14.6,BA=5.44,STAT.D=0.0,ExtBa=12.80
26/09/2020,11:16:13,TEMP=14.5,BA=5.44,STAT.D=0.0,ExtBa=12.80
26/09/2020,11:31:13,TEMP=13.8,BA=5.40,STAT.D=0.0,ExtBa=12.80
26/09/2020,11:46:14,TEMP=14.1,BA=5.44,STAT.F,ExtBa=12.80
26/09/2020,12:01:13,TEMP=14.6,BA=5.48,STAT.D=0.0,ExtBa=12.80
26/09/2020,12:16:13,TEMP=14.2,BA=5.32,STAT.D=0.0,ExtBa=12.80
26/09/2020,12:31:13,TEMP=14.0,BA=5.28,STAT.D=0.0,ExtBa=12.80
26/09/2020,12:46:15,TEMP=12.9,BA=5.32,STAT.F,ExtBa=12.79
26/09/2020,13:01:13,TEMP=13.6,BA=5.28,STAT.D=0.0,ExtBa=12.80
26/09/2020,13:16:13,TEMP=13.9,BA=5.36,STAT.D=0.0,ExtBa=12.80
26/09/2020,13:31:13,TEMP=13.8,BA=5.40,STAT.D=0.0,ExtBa=12.80
26/09/2020,13:46:14,TEMP=13.7,BA=5.28,STAT.F,ExtBa=12.79
26/09/2020,14:01:12,TEMP=13.9,BA=5.28,STAT.D=0.0,ExtBa=12.80
26/09/2020,14:16:12,TEMP=13.4,BA=5.28,STAT.D=0.0,ExtBa=12.79
26/09/2020,14:31:12,TEMP=13.4,BA=5.28,STAT.D=0.0,ExtBa=12.79
26/09/2020,14:46:14,TEMP=13.1,BA=5.28,STAT.F,ExtBa=12.79
26/09/2020,15:04:03,TEMP=13.4,BA=5.28,STAT.h
26/09/2020,15:19:47,TEMP=12.6,BA=5.28,STAT.A=0.0,ExtBa=12.80
26/09/2020,15:32:10,TEMP=12.7,BA=5.28,STAT.A=0.0,ExtBa=12.79
26/09/2020,15:42:25,TEMP=12.8,BA=5.28,STAT.A=0.0,ExtBa=12.78
26/09/2020,15:51:07,TEMP=12.8,BA=5.28,STAT.C=0.0,ExtBa=12.77
26/09/2020,15:58:34,TEMP=12.8,BA=5.28,STAT.A=0.0,ExtBa=12.76
26/09/2020,16:05:03,TEMP=12.9,BA=5.20,STAT.A=0.0,ExtBa=12.75
26/09/2020,16:10:44,TEMP=12.9,BA=5.24,STAT.A=0.0,ExtBa=12.74
26/09/2020,16:15:46,TEMP=12.9,BA=5.24,STAT.A=0.0,ExtBa=12.74
26/09/2020,16:20:15,TEMP=12.9,BA=5.24,STAT.B=0.0,ExtBa=12.74
26/09/2020,16:29:37,TEMP=12.7,BA=5.24,STAT.A=0.0,ExtBa=12.76
26/09/2020,16:37:02,TEMP=12.7,BA=5.20,STAT.A=0.0,ExtBa=12.75
26/09/2020,16:43:02,TEMP=12.7,BA=5.24,STAT.A=0.0,ExtBa=12.74
26/09/2020,16:48:00,TEMP=12.7,BA=5.24,STAT.A=0.0,ExtBa=12.73
26/09/2020,16:52:41,TEMP=12.8,BA=5.24,STAT.A=0.0,ExtBa=12.73
26/09/2020,16:55:45,TEMP=12.9,BA=5.24,STAT.A=0.0,ExtBa=12.71